Terminal Aerodrome Forecast
Issued by NWS

Home | Current Version | Previous Version | Text Only | Print | Product List | Glossary Off
Versions: 1 2 3 4 5 6 7 8 9 10 11 12 13 14 15 16

000
FTUS43 KICT 232238 AAB
TAFRSL
TAF AMD
KRSL 232238Z 2323/2418 17016G24KT P6SM VCTS SCT070CB BKN250
      TEMPO 2323/2401 4SM -TSRA BKN040CB
     FM240800 17011KT P6SM SCT250
     FM241600 19015G23KT P6SM SCT200=

USA.gov is the U.S. government's official web portal to all federal, state and local government web resources and services.